Regional Weather Roundup
Issued by NWS

Home | Current Version | Previous Version | Graphics & Text | Print | Product List | Glossary Off
Versions: 1 2 3 4 5 6 7 8 9 10 11 12 13 14 15 16 17 18 19 20 21 22 23 24 25 26 27 28 29 30 31 32 33 34 35 36 37 38 39 40 41 42 43 44 45 46 47 48 49 50

000
ASUS43 KTOP 182059
RWRKS

WEATHER ROUNDUP FOR KANSAS
NATIONAL WEATHER SERVICE GOODLAND KS
400 PM CDT MON SEP 18 2017

NOTE:  "FAIR" INDICATES FEW OR NO CLOUDS BELOW 12,000 FEET WITH NO
SIGNIFICANT WEATHER AND/OR OBSTRUCTIONS TO VISIBILITY.

KSZ001>006-013>018-027>032-041>047-182200-
NORTHWEST KANSAS

CITY           SKY/WX    TMP DP  RH WIND       PRES   REMARKS
GOODLAND       SUNNY     84  44  24 NW5       29.92F
HAYS           MOSUNNY   88  61  40 SW18      29.86F
HILL CITY      SUNNY     86  57  37 S7        29.87F
RUSSELL        MOSUNNY   89  59  36 SW15G26   29.84F
$$

KSZ061>065-074>080-084>089-182200-
SOUTHWEST KANSAS

CITY           SKY/WX    TMP DP  RH WIND       PRES   REMARKS
DODGE CITY     SUNNY     86  59  39 SW16G23   29.90F
ELKHART          N/A     84  59  42 S6          N/A
GARDEN CITY    SUNNY     85  56  37 SW12G22   29.90F
GREAT BEND     MOSUNNY   88  60  38 SW16      29.87F
LIBERAL        SUNNY     83  62  49 SW14      29.93F
$$

KSZ066>073-081>083-090>101-182200-
SOUTHEAST KANSAS

CITY           SKY/WX    TMP DP  RH WIND       PRES   REMARKS
CHANUTE        MOSUNNY   80  67  64 S9        29.95F
COFFEYVILLE    SUNNY     82  68  62 S6        29.94F
HUTCHINSON     SUNNY     87  63  44 S12G22    29.88F
MEDICINE LODGE   N/A     83  63  50 S9        29.89F
NEWTON         PTSUNNY   83  64  52 S9        29.91F
WICHITA INTL   PTSUNNY   86  63  45 SW8G24    29.90F
WICHITA JABRA  PTSUNNY   85  62  46 S12G21    29.90F
WINFIELD       SUNNY     84  63  49 S9        29.93F
$$

KSZ007>012-019>026-033>040-048>060-102>105-182200-
NORTHEAST KANSAS

CITY           SKY/WX    TMP DP  RH WIND       PRES   REMARKS
CONCORDIA      PTSUNNY   79  69  71 NE8       29.88F
EMPORIA        SUNNY     81  67  62 S8        29.92F
LAWRENCE       PTSUNNY   76  69  79 SE10      29.92F
MANHATTAN      MOSUNNY   82  69  64 S10       29.89F
OLATHE IND     CLOUDY    73  68  84 S8        29.95F
OLATHE EXE     CLOUDY    71  69  93 S8        29.95F
SALINA         MOSUNNY   91  60  35 S9        29.87F
TOPEKA BILLARD PTSUNNY   78  70  76 S12       29.91F
TOPEKA FORBES  MOSUNNY   78  69  73 S12       29.92F
$$




USA.gov is the U.S. government's official web portal to all federal, state and local government web resources and services.